STARLINK-4543 (53429 NORAD) Tracking and Keplerian Element Data

This shows tracking and keplerian element data for the satellite.

Feedback or suggestion? Click here.




ElementValue
Catalog53429
NameSTARLINK-4543
Epoch Orbit1648
Epoch Day325.33334491
Epoch Year2022
RAAN110.7941
Inclination53.2144
Eccentricity0.0001212
Argument of Perigee106.768
Mean Anonmoly312.0523
Mean Motion15.08828714
Decay Rate0.00046376
L11 53429U 22097AT 22325.33334491 .00046376 00000+0 29138-2 0 9997
L22 53429 53.2144 110.7941 0001212 106.7680 312.0523 15.08828714 16480



Live tracking and technical data element details for STARLINK-4543 (NORAD 53429). STARLINK-4543 can be tracked NOW for your location showing map with azimuth and elevation plus other details from your city location.







IsCatalogInMostPopularTable: catalog: 53429, numindb: 6
Update: records affected: 1



GetName: 53429 STARLINK-4543

Hit Count: updated at: Thu, 08 Dec 2022 20:30:10 GMT